GFSNIL_sfc_wetblb_057.txt.gz
Wetbulb
66.00 68.12 66.55 69.50 68.96 68.13 67.68 67.39 68.24 68.77 69.40 68.94 68.24 67.05 66.96 64.92 64.69 64.32 63.21 62.36 61.31 60.01
66.71 67.36 68.87 69.09 68.73 68.12 67.62 68.32 68.31 69.37 68.86 68.26 67.14 66.65 65.62 64.62 63.93 63.44 62.53 61.98 61.44 60.32
68.90 69.28 70.79 69.56 68.22 67.35 67.88 68.06 67.95 68.63 68.09 67.32 66.43 66.03 64.95 63.51 63.13 62.91 62.18 61.98 61.06 60.65
69.55 70.22 70.77 69.22 69.02 68.19 68.51 67.84 68.64 68.21 66.74 65.91 65.20 65.11 63.34 62.73 62.80 62.18 61.20 61.26 61.20 61.20
69.42 69.72 69.29 68.52 69.13 69.87 68.66 68.83 67.66 66.55 65.97 65.80 65.43 63.72 62.95 62.40 63.02 61.57 60.76 60.97 60.51 60.87
68.33 68.22 67.15 66.23 66.45 68.43 68.13 66.35 66.31 65.56 64.82 64.83 65.00 64.28 64.48 62.17 62.48 61.87 61.71 61.63 60.60 60.07
66.74 67.51 67.21 66.42 65.83 64.54 64.81 64.16 64.80 65.91 65.91 65.73 64.68 63.55 62.58 63.26 62.61 62.49 61.65 61.25 60.29 59.07
67.30 67.12 65.83 64.49 64.41 63.60 63.64 63.02 62.99 63.00 62.63 63.49 63.97 63.65 63.64 63.64 61.86 60.95 59.75 59.42 59.37 58.84
66.76 65.54 64.88 63.37 62.67 62.98 62.55 62.15 61.96 61.95 61.41 59.81 59.63 49.38 54.15 60.16 61.62 60.89 59.33 58.11 57.86 59.35
65.23 64.02 62.98 63.04 62.69 61.41 61.83 62.68 62.17 62.34 59.98 56.75 54.91 48.32 50.86 54.67 61.50 60.57 59.59 58.29 57.97 59.83
63.72 63.14 62.54 61.72 61.37 62.85 63.28 62.50 62.29 62.53 60.55 56.79 53.77 48.51 51.77 52.92 61.30 60.25 59.76 58.86 58.66 59.74
63.48 62.55 61.82 61.12 62.34 62.33 62.44 60.51 60.55 61.92 58.92 56.12 54.80 48.32 50.50 54.07 60.95 60.10 58.87 59.13 59.24 59.67
63.38 62.55 62.78 61.78 61.86 61.02 60.92 60.69 62.09 62.21 60.39 54.75 54.70 46.15 47.96 54.31 60.88 58.91 58.21 57.83 57.81 47.04
63.83 61.96 62.00 62.16 61.31 60.90 61.27 61.52 61.36 60.60 59.73 58.59 54.80 52.10 46.82 50.86 61.59 59.63 58.81 58.13 56.76 53.69

GFSNIL_sfc_wetblb_060.txt.gz
Wetbulb
63.39 63.55 63.80 64.89 67.41 67.89 67.90 67.52 67.59 67.63 67.36 67.30 67.72 66.49 66.06 66.22 64.70 62.83 62.21 61.19 60.24 59.26
63.85 63.77 64.20 66.74 67.77 67.54 67.39 67.72 67.68 67.36 66.94 67.00 66.78 66.56 65.25 65.31 63.60 62.61 61.69 61.12 60.38 58.95
64.84 65.32 66.78 67.75 67.20 67.12 67.05 67.96 66.83 66.49 66.62 66.42 67.11 65.44 64.20 63.26 62.89 61.85 60.92 60.64 59.87 59.38
65.24 66.56 68.29 67.86 67.16 67.12 67.41 67.07 67.12 67.10 66.80 66.89 66.07 64.88 63.23 62.24 61.84 61.67 60.36 60.32 59.82 59.65
67.16 68.22 68.33 67.38 67.05 67.21 66.62 67.27 67.50 67.41 67.10 66.40 65.83 63.62 62.30 61.61 62.16 61.39 59.96 59.66 59.36 59.75
67.12 68.38 68.38 67.63 67.63 67.09 67.43 67.07 66.81 66.46 65.80 65.38 64.56 62.94 61.78 61.97 61.83 60.90 60.37 59.87 59.09 59.29
66.37 66.66 66.91 67.75 67.95 67.52 66.85 66.10 65.35 65.13 64.96 64.80 63.79 62.91 63.15 62.19 61.01 60.84 60.44 60.25 59.49 59.14
65.66 65.71 65.64 64.82 65.07 65.35 66.42 66.02 65.58 63.63 63.32 63.68 64.11 62.93 62.08 61.56 60.95 60.09 59.13 59.06 58.83 58.24
65.18 65.62 65.29 64.32 62.53 62.47 62.19 62.12 61.40 60.83 60.85 60.53 60.45 52.25 55.26 60.25 60.21 59.69 58.64 57.32 57.11 57.75
64.98 64.84 64.10 62.81 62.14 60.51 59.90 59.72 58.99 58.35 58.81 58.48 55.74 47.55 49.91 53.35 60.28 58.82 57.96 57.12 56.53 57.90
64.42 63.24 62.75 61.41 60.33 60.01 59.83 59.98 59.23 58.63 57.55 55.34 52.71 48.09 49.91 53.71 59.70 58.34 58.20 57.55 57.13 57.57
63.45 62.02 60.73 60.08 59.91 60.32 61.63 62.00 61.06 58.90 55.92 54.12 53.66 47.55 49.18 55.99 58.78 58.12 57.58 57.72 58.24 58.47
62.45 61.26 60.24 60.11 60.35 61.74 61.68 61.46 60.28 57.84 56.11 53.92 54.71 45.74 46.10 53.89 58.92 57.24 58.20 57.60 56.09 48.07
61.89 60.75 60.70 60.45 61.52 59.96 61.27 60.98 59.80 57.72 55.91 55.51 55.11 50.75 44.29 48.82 59.48 58.90 57.39 57.64 56.35 54.18

GFSNIL_sfc_wetblb_063.txt.gz
Wetbulb
61.95 61.59 60.37 60.07 62.47 63.80 65.35 65.64 66.59 66.82 67.02 66.91 66.73 65.87 65.04 65.53 64.04 64.10 62.27 60.05 59.36 58.77
60.95 60.10 60.53 61.49 64.17 64.92 65.38 66.64 66.91 66.93 66.77 66.57 66.53 65.58 64.90 64.10 64.73 63.43 61.10 60.37 59.50 58.87
60.44 61.22 61.25 63.39 64.96 65.60 65.91 66.80 66.68 66.57 66.24 65.76 65.94 65.74 65.29 64.13 63.39 62.01 60.54 60.38 59.37 58.00
61.16 61.81 63.31 64.76 65.74 66.25 66.35 66.68 66.69 66.64 65.94 65.96 65.36 65.43 64.76 63.03 62.41 61.38 59.93 59.31 59.21 58.82
61.92 63.84 65.16 65.53 65.76 66.21 66.41 66.93 66.67 66.44 66.03 66.26 66.02 64.68 63.54 63.28 62.76 60.74 59.18 59.27 58.63 58.64
63.81 65.14 65.71 65.85 65.75 66.25 66.03 66.37 66.75 66.55 66.15 65.66 65.42 64.11 63.58 62.77 61.27 60.41 59.83 59.42 58.50 58.26
65.45 66.19 66.21 65.96 65.91 66.05 66.77 66.37 66.01 66.26 66.40 65.99 65.11 63.92 61.67 61.29 60.57 60.08 59.65 59.21 58.77 58.48
65.60 66.27 67.27 67.04 66.61 66.64 66.96 65.82 65.77 65.44 65.61 64.82 63.37 62.77 61.29 60.74 59.85 59.05 58.63 58.64 58.66 58.04
65.03 65.89 66.93 67.31 66.57 65.63 65.25 64.68 64.64 63.85 63.13 62.11 62.60 52.15 53.64 58.40 59.23 58.78 58.13 57.55 57.03 56.97
64.64 64.13 63.99 63.68 64.39 64.66 63.16 63.61 62.69 60.34 60.35 58.90 57.13 48.36 50.67 54.02 60.72 58.65 57.49 56.67 56.01 56.45
64.00 63.11 63.23 62.53 62.16 60.92 61.91 60.59 58.63 57.35 57.29 56.35 52.99 46.46 47.18 50.44 58.63 57.53 57.11 56.51 56.01 56.17
63.39 62.24 61.95 60.90 59.36 59.05 58.90 57.61 56.43 56.37 55.37 54.81 52.89 46.09 46.46 55.36 57.65 56.99 56.43 56.59 56.45 57.17
63.21 62.15 61.25 60.13 59.64 59.38 59.70 57.97 57.43 55.73 55.71 50.89 52.64 45.19 46.82 54.94 57.65 57.51 57.86 57.39 55.72 48.45
62.55 61.63 61.09 59.59 60.12 59.99 59.85 58.23 56.93 55.27 55.43 55.81 54.40 49.80 45.19 48.81 57.86 58.81 58.05 57.45 56.33 54.35

GFSNIL_sfc_wetblb_069.txt.gz
Wetbulb
62.65 65.38 67.10 68.52 68.77 68.18 67.97 69.75 73.28 72.25 71.78 71.41 71.24 70.97 71.04 70.38 70.76 70.90 69.39 69.75 67.77 66.08
62.25 65.10 65.60 68.53 68.97 67.85 68.62 70.28 71.04 71.28 71.31 71.51 71.71 71.51 71.60 71.13 71.47 70.70 69.56 68.51 67.61 67.26
62.65 64.85 67.59 68.94 68.47 67.51 68.48 70.90 70.03 70.81 71.63 71.64 71.83 72.25 72.37 71.83 71.86 70.87 69.18 66.50 67.72 67.71
62.42 64.30 67.07 68.24 68.51 68.80 69.92 70.21 69.73 70.80 71.29 71.37 71.81 72.43 72.05 71.91 71.14 69.51 66.43 65.59 66.14 68.20
62.98 63.44 66.80 67.55 67.58 68.57 69.59 69.92 69.75 70.62 70.95 71.35 71.88 71.91 71.44 70.70 70.12 68.17 64.90 65.56 67.84 67.50
63.87 63.35 65.96 66.92 67.76 68.78 69.31 69.60 70.09 70.43 70.62 71.07 71.43 71.36 71.19 70.62 68.91 67.19 66.24 66.53 68.04 67.38
64.36 63.22 65.88 67.30 68.94 69.48 69.21 69.37 70.07 70.44 70.77 71.17 71.25 70.78 70.57 69.82 67.36 65.81 65.25 66.67 67.99 67.19
65.92 62.73 64.78 66.95 68.26 68.97 69.31 69.63 70.03 70.26 70.81 71.38 70.65 69.62 70.05 67.70 65.72 65.54 65.36 67.27 66.86 67.10
66.31 62.94 65.29 67.16 68.16 68.87 68.82 69.23 69.91 70.14 70.29 70.28 68.99 53.57 56.05 63.53 65.92 66.28 66.60 66.07 66.24 66.40
65.96 64.91 65.56 67.32 67.75 67.21 67.38 68.00 68.82 70.15 69.82 69.95 69.43 51.28 52.39 56.11 66.71 67.05 66.93 66.87 66.39 65.17
65.12 65.51 66.37 66.98 66.10 66.74 67.21 67.32 68.15 68.94 70.19 69.29 66.38 49.25 49.74 53.21 67.39 67.05 66.78 66.97 66.65 66.04
64.26 64.63 64.56 64.52 66.20 66.98 66.36 66.85 67.50 68.68 66.54 64.63 57.66 46.50 47.26 57.59 66.78 65.81 65.54 65.67 65.85 65.73
62.77 64.80 65.08 66.60 66.59 65.89 66.14 66.01 66.25 62.81 66.73 58.69 60.64 43.96 46.72 58.03 65.53 64.81 64.22 64.42 63.52 49.94
63.65 64.66 65.39 64.84 64.45 64.75 64.23 64.40 61.93 59.64 60.18 61.70 60.75 52.80 45.81 49.44 65.24 64.24 62.57 61.28 60.10 60.66

GFSNIL_sfc_wetblb_072.txt.gz
Wetbulb
65.09 63.98 64.83 67.47 66.78 66.83 69.54 71.67 76.04 75.74 76.21 75.23 75.47 75.01 74.92 73.58 72.67 73.52 72.30 73.05 73.38 71.70
65.62 65.48 65.14 67.54 70.07 67.90 71.32 71.38 73.23 74.35 75.24 75.55 74.92 74.42 74.26 72.15 72.52 73.75 73.63 73.61 73.07 71.77
65.99 66.82 67.02 67.87 67.37 69.02 70.99 72.34 72.09 73.91 75.11 74.34 73.95 73.36 74.00 73.18 74.09 73.65 73.32 72.67 73.09 71.95
63.66 65.56 67.73 68.05 68.21 70.23 72.18 71.14 71.18 72.55 72.95 73.14 72.64 73.38 73.88 74.85 73.96 73.23 73.16 72.93 71.42 71.03
63.11 63.59 65.16 67.91 68.18 69.49 70.32 70.58 70.85 71.88 72.22 72.19 72.27 73.52 73.66 73.63 73.52 72.75 71.96 70.88 70.85 69.60
61.56 61.64 63.16 67.04 68.61 69.02 69.33 69.93 70.82 71.49 71.77 71.42 71.93 73.18 73.76 73.60 72.95 72.72 72.17 71.04 70.28 70.13
60.32 60.92 61.67 66.86 68.68 68.50 69.03 69.46 70.48 71.91 71.85 71.74 72.15 72.94 73.28 73.11 72.23 72.37 71.58 71.18 70.53 70.79
59.83 60.84 61.09 65.70 68.16 67.67 69.18 70.08 71.34 71.67 71.58 71.98 72.25 72.27 72.87 72.28 72.07 71.98 70.56 70.38 69.73 70.26
59.51 59.25 60.06 65.14 67.23 68.13 69.52 71.53 72.10 71.71 71.04 71.81 71.34 55.42 57.89 68.14 71.97 70.74 69.77 68.43 68.58 69.24
57.74 57.47 59.44 64.32 65.92 68.13 71.75 73.25 72.89 72.52 71.44 72.18 72.19 53.24 54.13 57.56 71.33 70.49 69.78 68.63 68.43 67.75
56.59 56.74 58.78 65.03 66.38 70.60 72.29 73.07 72.86 72.75 72.37 72.21 70.11 50.89 51.98 55.15 70.73 69.38 68.97 69.23 68.77 68.23
55.96 56.69 58.64 65.11 68.64 71.35 71.21 71.55 72.26 71.84 71.74 71.38 65.76 49.26 50.53 60.81 69.24 68.01 67.89 67.97 68.32 68.12
54.49 57.31 58.77 65.71 68.14 69.57 68.99 69.46 70.51 70.99 71.80 64.87 66.90 46.71 50.27 60.17 66.48 66.71 66.20 67.59 67.66 51.97
54.79 59.06 63.29 65.81 66.68 66.74 67.78 68.36 68.37 68.29 68.86 68.04 64.67 54.40 48.44 49.24 66.56 65.71 65.64 65.76 65.66 65.69

GFSNIL_sfc_wetblb_075.txt.gz
Wetbulb
66.00 64.41 64.98 66.61 65.95 65.66 67.36 68.97 74.80 77.29 76.47 76.60 76.33 75.41 76.14 75.21 75.27 75.98 74.54 74.52 72.99 73.25
65.33 67.36 66.81 69.20 69.75 66.62 69.49 69.22 70.30 75.84 77.81 76.77 76.64 77.09 77.06 75.72 76.00 75.05 74.73 73.09 73.94 73.37
64.00 64.88 66.42 69.11 69.61 69.68 70.10 70.55 71.17 72.61 75.25 76.40 76.62 77.39 77.46 75.94 75.92 74.00 73.51 72.90 74.05 74.34
62.29 63.45 64.68 66.38 67.90 69.59 71.41 71.32 70.80 71.27 73.69 74.56 76.52 77.28 76.47 75.57 73.51 72.78 73.99 74.59 74.34 73.77
61.85 61.91 64.22 64.59 65.70 68.39 69.45 70.91 71.35 71.03 70.56 72.79 74.02 75.68 74.63 73.77 72.38 73.37 73.63 73.59 72.51 72.97
61.63 61.61 63.58 64.76 65.26 66.07 68.15 69.86 70.08 70.57 70.86 72.14 73.55 74.58 74.74 73.53 73.32 74.42 74.11 73.00 73.04 72.52
59.53 61.04 62.21 63.56 64.64 65.66 66.27 69.75 69.39 70.95 70.71 72.27 73.63 73.98 73.78 73.46 74.12 74.59 73.83 74.39 73.05 71.64
58.41 59.06 60.49 62.70 63.95 64.80 66.14 70.33 69.12 69.91 71.24 72.74 73.47 72.94 73.73 74.16 74.56 74.75 74.06 73.81 72.00 72.65
55.75 56.62 59.35 62.05 64.11 63.81 65.42 70.19 69.45 69.59 70.61 72.13 72.69 59.67 59.73 69.97 74.42 74.20 72.99 72.15 71.62 71.18
54.79 55.10 58.05 60.46 62.07 63.56 65.65 69.92 69.99 70.89 72.06 73.02 74.14 53.51 54.51 58.95 74.67 73.48 72.79 71.32 71.38 69.68
52.04 53.73 56.99 59.58 61.39 64.22 65.84 68.91 69.97 71.75 73.80 73.99 72.98 52.16 53.24 57.06 74.15 73.15 71.58 71.90 70.83 70.05
49.93 51.10 56.09 59.00 61.77 63.82 66.38 68.26 70.16 71.84 72.63 72.76 68.86 50.55 52.82 62.81 72.38 70.87 70.51 70.10 69.89 69.37
51.58 53.31 56.53 58.71 60.10 63.14 65.48 68.30 70.90 71.63 72.27 66.79 69.05 48.56 52.43 63.29 70.05 69.23 68.49 69.25 67.19 52.20
53.12 54.75 58.15 59.63 58.42 62.51 63.97 68.74 70.20 70.57 71.55 72.01 68.00 61.48 51.99 50.60 69.84 68.07 66.83 66.28 66.53 66.12

GFSNIL_sfc_wetblb_078.txt.gz
Wetbulb
65.14 64.06 63.78 64.76 64.17 63.74 64.38 65.35 67.96 72.14 69.76 68.60 71.29 69.47 70.92 70.33 70.48 71.06 72.52 72.17 72.61 70.80
65.18 66.10 66.00 66.96 66.91 65.72 66.39 66.08 66.90 68.11 67.99 72.91 72.88 71.55 71.59 71.35 71.31 72.42 72.90 73.44 73.32 71.28
63.95 65.18 65.75 66.77 65.58 67.04 66.88 67.48 67.31 67.17 67.22 69.43 73.55 73.39 73.27 72.47 72.04 71.93 73.02 73.30 72.10 71.97
62.33 63.61 64.31 64.53 64.98 65.63 67.05 67.09 68.38 68.13 67.82 66.70 68.74 73.59 73.14 72.72 73.00 72.55 72.90 72.16 71.10 70.75
62.63 62.06 62.67 63.22 63.93 64.82 64.71 65.75 66.46 67.48 68.65 68.24 67.10 70.66 72.82 72.75 73.48 72.59 72.00 71.27 70.66 71.22
60.42 61.27 60.37 61.88 62.88 63.58 64.03 63.96 64.98 66.18 67.78 68.19 68.62 67.26 71.59 73.31 73.87 72.35 71.49 70.95 71.48 71.77
57.85 58.01 58.49 59.49 60.77 61.34 62.02 63.33 64.15 64.62 66.40 67.74 68.49 69.23 70.12 72.23 73.10 71.81 71.22 72.08 72.31 71.76
56.71 56.55 56.14 56.23 57.74 59.08 60.35 61.76 63.14 64.16 64.72 67.93 67.50 69.46 69.61 71.47 72.21 71.21 71.21 72.35 72.28 71.71
55.78 55.00 54.67 55.15 56.08 57.50 58.15 60.47 62.18 63.05 64.08 66.69 67.79 59.93 58.31 68.01 71.73 71.28 71.43 71.58 71.46 70.68
55.18 54.41 54.17 54.98 55.28 54.90 56.32 59.49 60.88 62.21 64.11 66.30 66.79 56.27 52.65 58.23 71.67 71.69 71.57 71.43 70.46 69.43
54.40 53.30 53.57 53.93 52.74 52.49 55.41 58.40 59.90 61.51 63.88 66.42 67.42 55.74 49.59 55.39 71.29 71.31 71.20 71.23 70.49 68.93
53.84 52.52 52.51 51.93 51.15 51.40 52.65 56.95 59.40 61.79 63.56 66.02 67.53 50.89 49.30 58.76 70.43 69.69 70.54 70.73 70.38 69.29
53.02 52.49 51.73 51.43 51.03 52.14 55.15 57.24 60.13 61.71 64.12 63.76 67.52 47.44 49.68 63.54 70.13 69.24 69.24 69.42 68.44 57.36
52.26 52.09 51.68 50.69 50.84 51.54 54.73 57.36 58.94 60.66 63.41 66.21 67.00 57.94 49.40 56.29 69.83 69.21 68.20 67.42 65.59 62.48

GFSNIL_sfc_wetblb_084.txt.gz
Wetbulb
56.65 56.71 57.77 58.83 59.06 58.40 58.43 58.96 60.50 61.96 65.98 68.65 68.57 68.50 68.49 67.74 66.58 67.20 67.78 68.00 67.52 65.39
57.06 57.97 58.18 58.18 58.76 59.18 60.75 63.16 63.73 63.38 62.27 65.24 67.86 67.79 67.99 67.81 67.63 67.34 67.70 67.37 67.52 66.74
55.82 56.59 56.22 57.34 59.03 60.39 61.10 61.66 62.58 63.98 63.83 63.99 64.58 66.37 66.87 67.14 68.28 67.88 67.81 67.50 66.93 65.85
55.55 56.08 56.39 56.66 56.66 57.63 58.94 60.49 61.58 61.84 62.34 62.93 64.14 64.65 63.70 64.81 67.27 67.52 67.94 67.92 67.27 67.15
52.27 52.12 52.83 53.65 54.74 55.52 55.69 57.44 59.19 61.30 61.23 61.91 61.82 62.10 63.11 63.70 64.71 66.12 67.66 67.77 67.27 68.04
51.93 51.69 52.42 51.30 51.73 53.36 53.48 54.04 55.05 56.29 57.61 58.98 60.46 60.91 61.49 62.79 63.79 64.43 64.81 68.98 68.42 68.57
48.80 49.98 48.62 49.58 50.64 50.04 50.58 50.66 51.20 52.32 54.57 55.89 56.67 57.90 59.33 60.53 60.52 62.28 64.36 65.57 69.34 70.09
49.14 49.31 49.07 49.64 49.39 49.80 50.31 51.17 51.29 51.51 53.11 54.47 54.88 55.82 55.18 57.23 58.86 60.17 62.24 64.17 65.83 68.99
50.35 50.03 49.58 49.81 49.27 49.47 50.19 50.19 50.43 50.92 52.39 52.64 54.57 49.78 49.93 53.14 57.13 59.26 59.98 61.25 64.26 67.87
49.86 50.25 50.36 50.65 49.91 49.46 48.67 48.67 48.81 50.09 50.98 50.88 51.34 47.52 47.04 49.28 54.42 57.31 59.15 60.36 62.58 65.73
51.54 51.11 51.09 50.10 49.82 49.39 48.88 48.60 48.91 49.30 49.45 49.23 50.38 46.65 45.61 46.96 52.34 56.46 59.26 60.33 61.52 64.18
51.37 51.07 50.57 50.08 49.95 49.53 47.32 46.66 47.24 47.95 48.26 47.70 48.31 45.46 44.56 46.16 51.88 55.71 57.37 59.88 62.24 64.45
49.58 49.86 50.00 50.04 49.35 48.33 47.65 48.02 48.34 48.04 47.46 47.55 47.76 45.49 44.72 46.28 53.23 55.22 58.00 60.93 62.80 55.95
48.60 47.91 48.02 48.69 47.91 46.57 46.69 47.14 46.67 47.38 47.78 47.54 48.26 48.65 45.65 45.57 53.28 56.45 58.58 59.98 62.34 63.54

GFSNIL_sfc_wetblb_087.txt.gz
Wetbulb
55.96 55.85 55.95 56.60 56.55 56.63 56.43 56.60 58.11 59.26 60.75 65.82 67.43 66.85 66.51 66.18 65.56 65.30 66.40 66.16 66.85 66.96
54.70 55.28 55.55 56.50 57.22 57.75 57.36 59.53 61.28 61.49 60.82 61.34 63.08 66.09 66.64 66.61 66.48 66.22 65.80 65.63 66.40 67.22
54.65 56.30 56.88 56.67 56.66 57.59 58.65 59.65 60.01 61.07 61.84 62.32 63.01 63.02 64.48 63.80 65.61 66.07 66.64 66.66 66.28 66.74
53.87 54.81 55.01 54.71 55.99 58.03 57.84 58.68 59.27 59.00 59.58 60.48 61.40 61.83 62.73 61.87 62.67 64.93 65.26 66.02 65.96 66.15
53.66 53.88 54.15 54.39 54.64 55.71 56.62 56.53 56.73 57.41 57.67 58.22 59.47 60.07 60.49 60.89 62.06 62.84 62.99 64.58 66.15 66.20
51.83 51.26 51.55 52.33 53.39 53.51 53.00 53.26 53.76 54.00 53.97 54.91 56.43 56.98 58.08 59.71 61.26 61.93 62.33 63.08 63.92 65.60
50.98 51.69 52.21 52.54 52.14 51.92 51.92 50.14 50.11 50.79 52.30 53.91 54.40 54.93 55.46 55.74 55.03 57.48 59.57 61.78 62.89 63.92
51.78 51.69 52.10 50.24 50.49 51.05 49.42 49.93 49.82 50.03 50.90 51.70 52.94 54.53 52.52 52.51 52.11 52.66 55.78 58.68 60.20 61.13
48.78 48.34 47.84 48.85 49.52 49.27 49.01 48.91 49.01 49.33 50.02 49.92 52.89 49.69 48.83 50.37 50.35 51.70 53.01 54.33 57.02 59.30
48.98 48.94 49.28 48.55 48.04 47.89 47.70 47.81 47.59 48.26 48.70 49.07 49.42 47.05 46.26 47.96 49.56 50.71 51.01 52.63 55.45 58.02
50.38 49.57 48.94 48.83 48.97 47.87 46.83 46.76 47.65 48.07 48.59 48.95 49.62 46.49 44.76 45.38 47.90 48.58 49.69 51.92 54.47 57.50
48.99 48.56 48.70 48.36 48.50 48.98 48.89 48.08 48.15 47.98 48.30 47.67 48.14 45.31 44.12 44.47 46.88 47.95 49.33 52.72 55.01 56.97
47.85 47.81 47.62 47.89 48.00 48.68 48.65 48.87 48.88 48.86 48.90 48.52 48.03 43.66 43.47 43.72 47.67 47.55 50.16 51.61 54.94 52.09
45.80 46.07 46.11 46.50 47.27 46.73 46.21 47.70 47.84 47.80 48.41 47.18 46.48 45.42 43.09 43.34 47.81 48.43 49.53 51.18 53.84 57.38

GFSNIL_sfc_wetblb_093.txt.gz
Wetbulb
65.56 66.24 65.70 65.41 64.71 64.69 64.70 65.99 68.23 68.47 69.74 70.54 70.71 70.44 69.66 67.55 66.13 66.27 65.79 66.18 64.00 63.29
62.43 62.66 62.79 63.70 64.76 63.81 64.83 64.11 65.42 65.89 66.27 66.71 69.06 70.72 70.38 68.47 68.06 68.40 67.69 66.56 67.17 65.30
62.61 62.73 62.91 63.26 63.24 64.02 64.54 65.00 65.40 65.67 66.84 67.17 67.09 68.89 70.47 69.69 69.45 68.59 68.16 68.68 67.66 67.00
61.33 61.61 62.15 62.46 63.57 64.40 65.22 65.14 65.85 66.22 66.69 67.10 67.42 68.04 68.36 68.65 68.40 68.11 68.21 68.54 68.08 67.83
57.37 59.35 61.46 62.43 63.23 64.49 64.09 64.82 65.45 65.71 65.26 64.52 65.04 65.95 65.04 64.72 64.45 64.71 64.72 65.31 65.93 65.53
57.40 58.39 59.19 61.41 62.19 62.72 63.48 64.12 65.07 64.69 63.80 62.94 62.73 62.73 62.58 61.73 61.48 61.55 62.31 61.93 60.96 60.82
57.79 57.26 58.31 60.33 60.85 60.26 62.32 63.09 63.60 63.65 62.92 62.06 61.04 59.79 59.49 59.56 59.69 59.95 58.52 58.69 58.38 58.84
58.07 58.17 58.07 58.83 59.76 61.03 61.20 62.40 62.50 62.26 62.05 61.19 59.21 57.93 59.12 59.06 59.03 58.73 58.53 58.73 58.20 58.68
55.28 55.33 57.52 57.82 58.77 60.07 60.81 61.03 61.39 61.19 60.68 59.71 57.81 50.13 50.22 56.84 59.10 59.00 58.29 57.93 57.87 58.14
55.19 55.38 55.94 56.72 56.89 57.90 59.71 61.11 60.37 60.09 59.35 59.02 59.41 46.45 46.79 49.73 59.27 59.03 58.64 58.51 57.96 57.09
53.08 54.12 56.24 56.15 55.66 56.62 57.89 58.48 58.97 59.04 58.81 58.33 58.15 46.65 45.00 46.63 58.55 58.91 58.79 58.47 58.24 57.66
51.21 52.68 54.51 55.17 56.12 56.49 55.78 55.77 56.49 57.35 57.79 57.46 58.22 45.88 44.46 47.66 56.61 57.57 57.91 57.78 57.96 57.50
50.75 51.38 51.95 53.46 55.13 56.49 56.24 55.96 55.67 55.34 56.25 53.92 56.75 46.93 43.69 47.05 55.67 56.20 56.35 57.73 57.44 48.48
49.39 50.19 51.43 52.47 53.99 54.35 53.84 53.60 54.13 54.37 55.99 56.50 55.44 55.36 43.61 42.90 55.13 55.44 55.93 55.73 55.68 56.64

GFSNIL_sfc_wetblb_096.txt.gz
Wetbulb
66.47 67.97 70.02 72.61 70.89 70.59 71.08 72.79 74.32 74.00 73.99 73.89 73.60 72.92 72.64 71.52 70.95 71.41 70.02 70.27 70.36 67.43
65.04 67.68 69.16 70.89 72.48 71.58 73.11 71.24 71.97 72.72 72.69 72.86 72.69 72.50 72.68 70.86 71.00 70.86 70.57 70.12 69.96 68.90
64.85 66.31 67.58 68.56 68.01 68.49 67.62 66.44 66.99 67.54 68.31 68.68 69.21 70.47 71.65 71.16 71.27 70.88 69.77 69.03 68.85 68.59
64.35 65.06 65.26 65.28 65.23 65.55 66.20 65.50 64.97 65.03 65.20 65.73 66.50 67.78 68.78 69.45 69.79 69.22 69.83 70.22 69.30 68.88
62.55 63.91 63.77 64.21 65.11 65.77 65.48 65.72 64.93 65.24 65.20 65.37 65.58 67.06 67.07 66.53 66.99 67.38 67.31 68.04 68.45 68.07
59.44 61.70 63.13 64.22 65.37 65.50 65.30 65.02 64.36 64.54 64.13 64.04 64.23 64.81 65.53 65.44 65.53 66.01 66.36 66.68 66.76 66.74
57.20 59.04 61.02 62.08 63.13 63.03 62.52 62.36 64.06 64.58 63.60 62.89 62.65 63.05 63.38 62.91 62.82 62.98 63.28 63.81 63.18 62.53
55.70 57.16 59.28 58.77 57.62 59.64 58.63 60.19 59.75 62.69 63.80 62.50 62.01 61.57 61.60 60.75 60.72 61.40 60.58 60.71 60.01 60.70
54.49 55.25 58.39 59.40 60.42 60.06 60.19 60.82 60.34 62.60 63.43 62.79 60.73 50.50 51.26 58.22 60.94 60.72 60.47 60.44 60.54 60.55
54.33 54.05 56.39 59.02 59.47 60.33 61.68 62.93 62.17 62.99 63.92 63.04 63.50 46.74 48.17 50.46 61.82 61.35 61.30 61.50 61.04 60.31
52.88 53.61 55.33 57.62 59.22 59.87 60.92 62.10 63.40 63.58 63.85 64.40 63.53 46.34 45.77 48.25 61.19 62.04 62.09 62.22 61.98 61.49
51.91 53.06 53.97 55.74 57.71 60.20 59.80 60.72 61.38 62.14 63.55 63.99 64.16 46.25 44.56 49.56 59.39 59.68 60.97 61.48 61.88 61.60
51.66 52.98 53.16 54.72 56.81 58.95 59.98 59.32 59.69 60.64 62.26 58.90 62.81 46.37 44.11 49.39 57.84 58.10 58.59 61.05 61.33 50.14
49.48 50.71 52.09 53.84 55.38 56.84 57.92 59.03 58.95 58.68 59.90 60.62 60.09 59.55 44.04 43.27 57.97 57.80 57.88 58.26 58.85 60.21

GFSNIL_sfc_wetblb_102.txt.gz
Wetbulb
67.93 65.39 65.27 65.74 66.33 66.23 65.85 66.43 68.45 70.12 71.43 71.63 72.03 72.20 72.42 70.79 71.34 70.97 70.33 69.51 69.24 68.12
64.58 66.05 65.69 66.43 66.34 65.80 67.08 68.69 67.16 69.12 70.40 67.96 61.64 67.06 71.05 70.56 70.16 69.79 70.18 69.36 68.68 68.64
63.36 62.95 64.76 65.29 65.65 66.12 66.90 67.52 68.79 69.85 69.80 68.08 67.27 67.84 71.05 70.50 69.47 68.03 67.28 67.59 68.28 68.58
61.35 62.68 62.99 64.39 63.86 64.30 63.34 66.20 67.42 68.43 69.78 69.52 68.80 68.86 67.55 67.41 65.87 65.44 64.84 66.21 67.21 68.48
61.05 62.39 61.97 62.05 62.05 60.86 60.01 59.32 57.66 59.86 66.50 68.43 68.10 66.86 63.39 63.85 65.65 64.90 64.19 65.74 66.66 67.30
59.13 59.81 60.38 60.49 60.97 60.86 59.05 57.24 56.75 55.72 55.74 57.67 66.68 66.52 64.96 64.26 64.34 61.16 65.54 66.74 67.18 66.92
56.54 57.16 58.17 59.24 59.53 59.96 58.31 56.52 54.86 55.90 56.35 56.68 63.87 65.93 66.19 65.88 65.12 64.95 65.52 66.68 66.15 65.92
56.00 55.57 55.24 55.82 58.73 59.44 58.56 56.77 55.84 55.65 56.51 56.98 57.71 63.69 64.21 64.59 64.84 65.05 64.42 66.03 65.76 65.60
54.46 54.13 53.93 54.06 54.84 58.61 56.96 56.00 56.93 56.20 56.71 56.69 57.49 51.78 52.21 56.50 63.66 63.71 63.10 62.90 62.50 57.27
53.45 53.12 53.16 53.33 53.24 54.05 56.67 56.14 54.37 55.12 56.75 56.04 57.24 51.24 49.01 49.37 61.96 62.43 62.20 61.63 60.97 58.23
52.13 51.19 51.11 51.38 52.04 52.49 55.46 56.34 55.60 55.09 55.36 55.50 57.58 48.76 47.85 47.07 54.27 61.82 61.76 61.43 61.45 60.29
50.54 49.94 49.84 50.25 50.06 50.46 52.43 55.29 56.39 56.75 55.72 55.05 57.48 47.73 48.07 51.09 55.39 54.24 60.33 61.50 62.29 61.75
50.20 49.38 49.08 49.42 49.62 50.26 51.18 53.54 55.86 57.28 58.03 54.63 58.00 47.00 46.43 50.99 54.07 53.61 57.84 60.84 61.64 52.96
48.77 48.78 49.54 49.48 49.15 49.30 49.59 50.41 51.13 54.86 57.06 58.23 58.59 55.38 45.46 45.90 53.77 54.31 55.97 58.92 59.83 60.35

GFSNIL_sfc_wetblb_105.txt.gz
Wetbulb
59.45 59.91 59.99 60.34 61.17 61.76 62.73 63.66 64.13 63.84 66.64 65.25 63.49 63.99 64.89 61.71 60.21 63.72 68.16 66.48 66.19 66.63
57.56 57.48 56.17 58.83 61.51 61.97 62.82 63.66 63.73 63.90 63.20 65.97 67.00 63.67 63.67 61.62 59.61 63.97 64.17 67.24 67.14 66.61
57.03 57.36 57.69 58.08 59.48 59.95 59.11 58.50 58.03 57.27 57.30 61.79 61.01 60.97 62.77 61.92 61.93 60.69 64.42 67.70 67.07 64.45
53.70 54.44 56.32 58.57 58.49 58.55 57.23 57.37 57.01 56.53 55.87 55.05 56.31 59.33 56.80 56.49 57.56 59.52 64.55 63.89 61.66 61.18
53.51 54.64 55.41 55.45 56.44 57.84 57.32 56.41 55.79 55.64 55.45 55.79 55.94 55.89 56.43 59.72 59.70 62.85 60.48 59.82 57.76 59.78
50.65 51.37 52.17 53.67 55.67 56.39 56.90 56.08 54.99 55.25 54.16 54.95 55.85 55.55 55.07 55.87 56.85 58.13 58.90 58.98 58.89 59.93
50.21 49.99 50.13 49.74 50.61 52.61 55.47 55.98 54.69 54.38 54.60 56.45 56.43 56.95 56.72 55.53 54.14 55.64 60.29 60.71 60.52 60.79
49.85 50.25 49.79 49.30 49.45 50.38 52.58 55.43 55.40 54.69 53.63 54.58 56.11 57.87 54.36 54.52 54.34 53.42 59.28 58.30 58.55 59.56
50.17 49.87 49.14 48.87 49.10 49.27 49.45 52.92 53.56 53.33 53.75 54.24 56.45 52.74 50.85 53.95 54.82 58.15 59.28 59.56 61.48 63.29
50.29 49.83 49.12 49.20 48.89 47.75 47.93 48.48 51.80 52.40 52.74 53.84 55.37 51.13 50.54 50.68 54.48 55.70 58.40 56.35 54.93 56.61
49.17 49.14 48.66 47.36 46.22 45.66 46.04 46.93 48.81 50.95 53.22 53.21 55.26 50.25 49.68 48.64 52.11 55.69 58.67 56.69 55.28 54.32
49.28 48.87 48.23 47.35 46.94 47.76 46.98 46.03 47.83 49.69 51.42 52.66 54.26 47.82 46.86 48.02 53.38 54.22 56.00 56.69 56.07 55.77
47.06 46.83 47.08 47.21 47.42 47.41 46.93 46.39 48.86 48.81 48.75 50.76 53.81 47.84 45.15 47.17 53.58 51.49 53.62 55.72 56.15 52.61
44.92 45.49 46.39 46.37 46.51 46.88 46.03 46.12 45.30 46.89 47.02 50.04 53.40 54.89 46.29 46.21 52.20 51.19 51.65 54.60 55.74 55.14